Location: Unspecified
(41.4057°N, 2.1753°E)
Time: 21:40:56
(UTC+02:00)

ISS - Visible Passes

Search period start: 25 October 2014 00:00
Search period end: 03 November 2014 23:00
Orbit: 412 x 416 km, 51.6° (Epoch: 25 October)

Date Brightness Start Highest point End Pass type
(mag) Time Alt. Az. Time Alt. Az. Time Alt. Az.
25 Oct -3.2 20:13:46 10° WNW 20:17:06 75° SW 20:18:42 28° SE visible
26 Oct -3.2 18:24:35 10° NW 18:27:54 63° NNE 18:31:13 10° ESE visible
26 Oct -0.6 20:02:12 10° W 20:04:15 15° SW 20:05:01 14° SSW visible
27 Oct -1.2 19:12:20 10° WNW 19:15:12 27° SW 19:18:03 10° SSE visible
28 Oct -2.2 18:22:49 10° WNW 18:26:03 48° SW 18:29:16 10° SE visible
30 Oct -0.3 18:21:32 10° W 18:23:52 18° SW 18:26:11 10° S visible
